McCook, NE

3:40 AM CDT on April 27, 2018 (GMT -0500)
McCook Municipal

Weather History for KMCK - April, 2013

Change the Weather History Date:

Tuesday, April 23, 2013

  Actual Average Record
Temperature  
Mean Temperature 35 °F 52 °F  
Max Temperature 44 °F 67 °F 98 °F (1939)
Min Temperature 26 °F 37 °F 25 °F (1987)
Degree Days  
Heating Degree Days 30    
Moisture  
Dew Point 20 °F    
Average Humidity 63    
Maximum Humidity 86    
Minimum Humidity 34    
Precipitation  
Precipitation T in 0.10 in 1.47 in (1971)
Month to date precipitation 1.57 1.66  
Year to date precipitation 3.41 4.15  
Sea Level Pressure  
Sea Level Pressure 30.30 in    
Wind  
Wind Speed 15 mph (North)    
Max Wind Speed 20 mph    
Max Gust Speed 29 mph    
Visibility 9 miles    
Events Snow    
T = Trace of Precipitation, MM = Missing Value Source: NWS Daily Summary

Daily Weather History Graph

Daily Weather History Graph

Search for Another Location

Airport or City:

Astronomy

Apr. 23, 2013 Rise Set
Actual Time 6:52 AM CDT 8:29 PM CDT
Civil Twilight 6:23 AM CDT 8:58 PM CDT
Nautical Twilight 5:48 AM CDT 9:33 PM CDT
Astronomical Twilight 5:11 AM CDT 10:10 PM CDT
Moon 6:26 PM CDT (4/23) 5:21 AM CDT (4/23)
Length of Visible Light 14h 35m
Length of Day
13h 37m
Waxing Gibbous, 94% of the Moon is Illuminated
Apr 23
Waxing Gibbous
Apr 25
Full
May 2
Last Quarter
May 9
New
May 17
First Quarter

Hourly Weather History & Observations

Time (CDT) Temp. Windchill Dew Point Humidity Pressure Visibility Wind Dir Wind Speed Gust Speed Precip Events Conditions
12:53 AM 28.9 °F 17.3 °F 23.0 °F 78% 30.38 in 10.0 mi North 16.1 mph - 0.00 in   Overcast
1:24 AM 28.4 °F 15.4 °F 24.8 °F 86% 30.31 in 1.8 mi North 19.6 mph 25.3 mph 0.00 in Snow Light Snow
1:39 AM 28.4 °F 16.6 °F 24.8 °F 86% 30.30 in 3.0 mi North 16.1 mph 26.5 mph 0.00 in Snow Light Snow
1:53 AM 28.9 °F 17.3 °F 24.1 °F 82% 30.37 in 3.0 mi North 16.1 mph - 0.00 in Snow Light Snow
2:27 AM 28.4 °F 15.8 °F 23.0 °F 80% 30.30 in 9.0 mi North 18.4 mph - 0.00 in   Overcast
2:53 AM 28.9 °F 17.7 °F 23.0 °F 78% 30.35 in 6.0 mi North 15.0 mph - 0.00 in Snow Light Snow
3:53 AM 28.0 °F 14.9 °F 19.9 °F 72% 30.32 in 6.0 mi North 19.6 mph 28.8 mph 0.00 in   Haze
4:53 AM 26.6 °F 13.4 °F 19.4 °F 74% 30.28 in 10.0 mi NNE 18.4 mph 25.3 mph N/A   Overcast
5:53 AM 27.0 °F 14.3 °F 19.0 °F 72% 30.35 in 10.0 mi North 17.3 mph - N/A   Scattered Clouds
6:53 AM 26.1 °F 13.6 °F 19.0 °F 75% 30.35 in 10.0 mi North 16.1 mph - N/A   Partly Cloudy
7:53 AM 27.0 °F 17.3 °F 19.9 °F 75% 30.37 in 10.0 mi NNW 10.4 mph - N/A   Mostly Cloudy
8:53 AM 28.0 °F 16.5 °F 19.0 °F 69% 30.37 in 10.0 mi North 15.0 mph - N/A   Overcast
9:53 AM 28.9 °F 18.2 °F 19.0 °F 67% 30.36 in 10.0 mi North 13.8 mph - N/A   Overcast
10:53 AM 30.9 °F 19.4 °F 18.0 °F 59% 30.35 in 10.0 mi North 17.3 mph - N/A   Overcast
11:53 AM 33.1 °F 23.4 °F 19.0 °F 56% 30.34 in 10.0 mi North 13.8 mph - N/A   Overcast
12:53 PM 35.1 °F 24.8 °F 18.0 °F 50% 30.33 in 10.0 mi North 17.3 mph - N/A   Overcast
1:53 PM 35.6 °F 27.5 °F 17.6 °F 48% 30.24 in 10.0 mi North 11.5 mph 20.7 mph N/A   Overcast
2:53 PM 37.9 °F 31.5 °F 19.0 °F 47% 30.29 in 10.0 mi NNW 9.2 mph 19.6 mph N/A   Overcast
3:53 PM 39.9 °F 33.4 °F 18.0 °F 41% 30.25 in 10.0 mi NNW 10.4 mph - N/A   Overcast
4:53 PM 42.1 °F 35.7 °F 17.1 °F 37% 30.23 in 10.0 mi NNW 11.5 mph - N/A   Mostly Cloudy
5:53 PM 43.0 °F 36.4 °F 16.0 °F 34% 30.21 in 10.0 mi North 12.7 mph - N/A   Overcast
6:53 PM 42.1 °F 36.1 °F 16.0 °F 35% 30.22 in 10.0 mi NNE 10.4 mph - N/A   Overcast
7:53 PM 39.0 °F 33.4 °F 19.0 °F 45% 30.22 in 10.0 mi NE 8.1 mph - N/A   Mostly Cloudy
8:53 PM 33.1 °F 26.1 °F 19.9 °F 59% 30.24 in 10.0 mi NNE 8.1 mph - N/A   Partly Cloudy
9:53 PM 32.0 °F 27.5 °F 19.9 °F 61% 30.27 in 10.0 mi East 4.6 mph - N/A   Clear
10:53 PM 32.0 °F - 19.9 °F 61% 30.29 in 10.0 mi Calm Calm - N/A   Clear
11:53 PM 30.0 °F 26.5 °F 19.0 °F 64% 30.29 in 10.0 mi South 3.5 mph - N/A   Clear